Regional Weather Roundup
Issued by NWS Albany, NY

Home | Current Version | Previous Version | Text Only | Print | Product List | Glossary On
Versions: 1 2 3 4 5 6 7 8 9 10 11 12 13 14 15 16 17 18 19 20 21 22 23 24 25 26 27 28 29 30 31 32 33 34 35 36 37 38 39 40 41 42 43 44 45 46 47 48 49 50
000
ASUS41 KALY 122110
RWRALY

NEW YORK STATE HOURLY WEATHER ROUNDUP
NATIONAL WEATHER SERVICE ALBANY NY
400 PM EST FRI FEB 12 2016

NOTE: "FAIR" INDICATES FEW OR NO CLOUDS BELOW 12,000 FEET WITH NO
SIGNIFICANT WEATHER AND/OR NO OBSTRUCTIONS TO VISIBILITY.

NYZ032-033-038>043-046>054-057>066-NYZ062>081-122200-
EAST


CITY           SKY/WX    TMP DP  RH WIND       PRES   REMARKS
ALBANY         CLOUDY    24   2  38 S12       29.97F WCI  13
GLENS FALLS    CLOUDY    22   4  46 S14G20    29.94F WCI   9
POUGHKEEPSIE   CLOUDY    27   0  31 S6        30.00F WCI  20
NEWBURGH       MOSUNNY   25   1  36 W9G16     29.99F WCI  15
MONTGOMERY     CLOUDY    25   2  37 SW13      29.98F WCI  14
WHITE PLAINS   PTSUNNY   24  -1  33 SW7       30.00F WCI  16
ISLIP          CLOUDY    23   8  52 SW9       30.06F WCI  13
NEW YORK CITY  CLOUDY    27  -1  30 SW10      30.05F WCI  17
CENTRAL PARK   CLOUDY    26  -1  31 VRB6      30.06F WCI  19
$$

NYZ005>009-017-018-044>046-055-056-122200-
CENTRAL


CITY           SKY/WX    TMP DP  RH WIND       PRES   REMARKS
FULTON         PTSUNNY   26   6  42 S12       29.86F WCI  16
SYRACUSE       PTSUNNY   22   7  52 S16       29.89F WCI   8
ROME           PTSUNNY   22   5  48 SW6       29.92F WCI  14
ELMIRA         PTSUNNY   21   8  57 SW16      29.90F WCI   7
BINGHAMTON     CLOUDY    16   3  56 SW10G20   29.85F WCI   4
MONTICELLO     CLOUDY    19  -2  38 W10G17    29.92S WCI   8
$$

NYZ026>034-041>043-122200-
NORTH


CITY           SKY/WX    TMP DP  RH WIND       PRES   REMARKS
WATERTOWN      LGT SNOW  24  13  62 SW20G29   29.82F WCI  10
FORT DRUM      NOT AVBL
MASSENA        SNOW      21  16  81 SW13      29.83S VSB 1/2 WCI   9
SARANAC LAKE   CLOUDY    17   5  59 SW17      29.74S WCI   1
PLATTSBURGH    PTSUNNY   21   7  54 S21G26    29.86F WCI   5
$$

NYZ001>004-010>016-019>021-122200-
WEST


CITY           SKY/WX    TMP DP  RH WIND       PRES   REMARKS
NIAGARA FALLS  LGT SNOW  22  17  81 W22G30    29.85S VSB 3/4 WCI   6
BUFFALO        SNOW      21  14  74 SW22G36   29.84S VSB 1/2 WCI   5
DUNKIRK        CLOUDY    22   8  55 SW22G28   29.88F WCI   6
JAMESTOWN      CLOUDY    16   9  73 SW13      29.82S WCI   2
WELLSVILLE     CLOUDY    16   5  62 S9        29.81F WCI   4
ROCHESTER      CLOUDY    25   8  48 SW18G26   29.85F WCI  11
PENN YAN       CLOUDY    23   4  44 SW17      29.86F WCI   9
$$

             KEY
       WCI = WIND CHILL INDEX
       VSB = VISIBILITY
       HX  = HEAT INDEX
$$



USA.gov is the U.S. government's official web portal to all federal, state and local government web resources and services.